Location: Kile Knob Observatory
(38.6083°N, 79.4792°W)
Time: 07:06:58
(UTC-04:00)

ISS - Visible Passes

Search period start: 21 May 2019 00:00
Search period end: 31 May 2019 00:00
Orbit: 407 x 410 km, 51.6° (Epoch: 21 May)

Date Brightness Start Highest point End Pass type
(mag) Time Alt. Az. Time Alt. Az. Time Alt. Az.
21 May -0.4 02:14:54 10° NNW 02:14:58 10° NNW 02:14:58 10° NNW visible
21 May -0.7 22:08:16 10° WNW 22:10:34 17° NNW 22:12:53 10° NNE visible
22 May -0.3 01:24:22 10° NNW 01:24:57 12° N 01:24:57 12° N visible
22 May -1.3 21:16:38 10° W 21:19:26 25° NNW 21:22:15 10° NNE visible
23 May -0.4 00:34:02 10° N 00:34:46 11° NNE 00:35:18 10° NNE visible
23 May -0.5 22:04:25 10° NW 22:05:37 12° NNW 22:06:51 10° N visible
24 May -0.3 01:18:25 10° NNW 01:18:29 10° NNW 01:18:29 10° NNW visible
24 May -0.7 21:12:22 10° WNW 21:14:21 15° NNW 21:16:21 10° NNE visible
25 May -0.6 00:27:47 10° NNW 00:29:01 14° N 00:29:01 14° N visible
25 May -0.7 23:37:16 10° N 23:38:33 12° NNE 23:39:35 11° NE visible
26 May -0.5 21:08:44 10° NNW 21:09:22 10° NNW 21:10:01 10° N visible
27 May -0.8 00:21:51 10° NNW 00:22:53 16° NNW 00:22:53 16° NNW visible
27 May -1.3 23:31:09 10° NNW 23:33:29 18° NNE 23:33:31 18° NNE visible
28 May -1.0 22:40:31 10° NNW 22:42:12 13° NNE 22:43:53 10° NE visible
29 May -0.9 00:16:04 10° NW 00:16:52 16° NW 00:16:52 16° NW visible
29 May -0.8 21:50:07 10° N 21:50:51 11° NNE 21:51:35 10° NNE visible
29 May -1.9 23:25:12 10° NW 23:27:31 29° N 23:27:31 29° N visible
30 May -1.7 22:34:24 10° NNW 22:37:01 21° NNE 22:38:12 18° ENE visible
